This demonstration page uses our WeatherBlox Daily Observations layout. Learn more.

Left ArrowRight Arrow

38.88101, -77.10428

Hourly Observations for June 8, 2021

Temp ( °F °C ) Dew Point ( °F °C ) Humidity (%) Winds ( mph kmh ) Pressure ( in mb ) Visibility ( mi km ) Precip ( " mm )
12:52 am 00:52 Mostly Cloudy 81 27.2 72 22.2 74 74 S 8 13 30.06 1018 10 16 N/A
1:52 am 01:52 Cloudy 80 26.7 71 21.7 74 74 S 9 15 30.06 1018 10 16 N/A
2:52 am 02:52 Mostly Cloudy 79 26.1 71 21.7 77 77 S 9 15 30.05 1018 10 16 N/A
3:52 am 03:52 Mostly Cloudy 78 25.6 70 21.1 76 76 S 12 19 30.05 1018 10 16 N/A
4:52 am 04:52 Mostly Cloudy 77 25 70 21.1 79 79 S 7 11 30.05 1018 10 16 N/A
5:52 am 05:52 Mostly Cloudy 76 24.4 70 21.1 82 82 SSW 7 11 30.06 1018 10 16 N/A
6:52 am 06:52 Mostly Cloudy 78 25.6 70 21.1 76 76 SW 8 13 30.07 1018 10 16 N/A
7:52 am 07:52 Mostly Cloudy 78 25.6 69 20.6 74 74 SW 8 13 30.09 1019 10 16 N/A
8:52 am 08:52 Cloudy 79 26.1 69 20.6 72 72 SSW 7 11 30.09 1019 10 16 N/A
9:52 am 09:52 Cloudy 79 26.1 69 20.6 72 72 SSW 8 13 30.10 1019 10 16 N/A
10:52 am 10:52 Cloudy 81 27.2 71 21.7 72 72 S 9 15 30.10 1019 10 16 N/A
11:52 am 11:52 Mostly Cloudy 83 28.3 72 22.2 70 70 S 9 15 30.09 1019 10 16 N/A
12:52 pm 12:52 Cloudy 86 30 74 23.3 67 67 SSE 7 11 30.07 1018 10 16 N/A
1:52 pm 13:52 Mostly Cloudy 86 30 74 23.3 67 67 S 9 15 30.05 1018 10 16 N/A
2:06 pm 14:06 Mostly Cloudy with Light Rain 84 28.9 74 23.3 72 72 SSE 7 11 30.05 1018 8 13 0.00 0.00
2:15 pm 14:15 Mostly Cloudy with Thunderstorms 83 28.3 74 23.3 74 74 SSE 12 19 30.04 1017 9 14 0.01 0.25
2:30 pm 14:30 Mostly Cloudy 82 27.8 73 22.8 74 74 SSE 12 19 30.04 1017 10 16 0.01 0.25
2:52 pm 14:52 Mostly Cloudy 84 28.9 74 23.3 72 72 S 14 22 30.04 1017 10 16 0.01 0.25
3:27 pm 15:27 Mostly Cloudy with Nearby Thunderstorms 84 28.9 74 23.3 72 72 SSE 12 19 30.01 1016 10 16 N/A
3:44 pm 15:44 Mostly Cloudy 86 30 75 23.9 70 70 SSE 10 17 30.01 1016 10 16 N/A
3:52 pm 15:52 Mostly Cloudy 87 30.6 75 23.9 67 67 S 12 19 30.01 1016 10 16 N/A
4:52 pm 16:52 Mostly Cloudy 88 31.1 74 23.3 63 63 S 13 20 30.00 1016 10 16 N/A
5:17 pm 17:17 Mostly Cloudy with Thunderstorms 86 30 73 22.8 65 65 SSE 13 20 30.00 1016 10 16 N/A
5:36 pm 17:36 Mostly Cloudy 87 30.6 73 22.8 63 63 S 12 19 30.00 1016 10 16 N/A
5:39 pm 17:39 Mostly Cloudy with Nearby Thunderstorms 87 30.6 72 22.2 61 61 S 10 17 30.00 1016 10 16 N/A
5:52 pm 17:52 Mostly Cloudy with Nearby Thunderstorms 86 30 73 22.8 65 65 S 10 17 29.99 1016 10 16 N/A
5:58 pm 17:58 Mostly Cloudy with Thunderstorms 86 30 73 22.8 65 65 S 7 11 29.99 1015 10 16 N/A
6:34 pm 18:34 Mostly Cloudy with Nearby Thunderstorms 85 29.4 72 22.2 65 65 E 9 15 30.00 1016 10 16 N/A
6:42 pm 18:42 Mostly Cloudy 86 30 71 21.7 61 61 E 8 13 30.00 1016 10 16 N/A
6:52 pm 18:52 Mostly Cloudy 85 29.4 71 21.7 63 63 SE 8 13 30.01 1016 10 16 N/A
7:52 pm 19:52 Mostly Cloudy 84 28.9 72 22.2 67 67 SSE 8 13 30.02 1017 10 16 N/A
8:52 pm 20:52 Mostly Cloudy 81 27.2 71 21.7 72 72 SSE 6 9 30.02 1017 10 16 0.00 0.00
9:35 pm 21:35 Mostly Cloudy with Nearby Thunderstorms 81 27.2 71 21.7 72 72 SSE 6 9 30.03 1017 10 16 0.00 0.00
9:52 pm 21:52 Mostly Cloudy with Thunderstorms 82 27.8 71 21.7 69 69 N N/A 30.04 1017 10 16 0.00 0.00
10:13 pm 22:13 Mostly Cloudy 82 27.8 71 21.7 69 69 N N/A 30.06 1018 10 16 N/A
10:52 pm 22:52 Mostly Cloudy 83 28.3 69 20.6 63 63 SW 3 6 30.05 1018 10 16 N/A
11:52 pm 23:52 Cloudy 82 27.8 69 20.6 65 65 SW 3 6 30.04 1017 10 16 N/A

Powered by AerisWeather